Location: Mexico
(19.4000°N, 99.1500°W)
Time: 14:57:52
(UTC-06:00)

ISS - Pass Details

Date: 15 January 2021
Orbit: 418 x 419 km, 51.6° (Epoch: 16 January)

Event Time Altitude Azimuth Distance (km) Brightness Sun altitude
Rises 20:06:15 0° 261° (W) 2,349 1.4 -24.8°
Reaches altitude 10° 20:09:57 10° 304° (NW) 1,488 -0.5 -25.7°
Maximum altitude 20:10:38 11° 316° (NW) 1,460 -0.7 -25.8°
Enters shadow 20:10:52 10° 320° (NW) 1,464 -0.7 -25.9°
